Regional Weather Roundup
Issued by NWS New Orleans/Baton Rouge, LA

Home | Current Version | Previous Version | Text Only | Print | Product List | Glossary On
Versions: 1 2 3 4 5 6 7 8 9 10 11 12 13 14 15 16 17 18 19 20 21 22 23 24 25 26 27
000
ASUS44 KLIX 291614
RWRLIX
NEW ORLEANS REGIONAL WEATHER ROUNDUP
NATIONAL WEATHER SERVICE NEW ORLEANS LA
1100 AM CDT MON MAY 29 2017

NOTE: "FAIR" INDICATES FEW OR NO CLOUDS BELOW 12,000 FEET WITH NO
      SIGNIFICANT WEATHER AND/OR OBSTRUCTIONS TO VISIBILITY.
      SKY/WX - SKY CONDITION AND SIGNIFICANT WEATHER.
      TMP - AIR TEMPERATURE.     DP    - DEWPOINT TEMPERATURE.
      RH  - RELATIVE HUMIDITY.   PRES  - PRESSURE.
      HI  - HEAT INDEX.          WCI   - WIND CHILL INDEX.

*  THESE STATIONS ARE NOT NWS OR FAA STATIONS AND ARE NOT UNDER
   NWS QUALITY CONTROL.

LAZ038-040-048-061>063-065>067-069-291700-
SOUTHEAST LOUISIANA

CITY           SKY/WX    TMP DP  RH WIND       PRES   REMARKS
N.O. INTL ARPT CLOUDY    75  69  81 SE9       30.03S
N.O. LAKEFRONT CLOUDY    77  70  79 SE8       30.03F
N.O. DOWNTOWN*   N/A     76  68  76 SE7         N/A
RESERVE*         N/A     79  68  69 SE7       30.04R
SLIDELL        CLOUDY    74  71  91 CALM      30.05R
BATON ROUGE    CLOUDY    73  68  84 VRB3      30.01F
BOOTHVILLE     CLOUDY    78  70  76 CALM      30.08S
BELLE CHASSE   CLOUDY   N/A N/A N/A SE5       30.03R
BOGALUSA*      CLOUDY    73  67  82 E8        30.05F
GALLIANO*      CLOUDY    76  69  79 SE5       30.04S
NEW ROADS*       N/A     74  68  81 N3        30.02S
GONZALES*        N/A     74  70  89 CALM      30.02R
HAMMOND*       CLOUDY    72  68  88 N3        30.03R
HOUMA*         CLOUDY    75  72  88 SE7       30.02F
PORT FOURCHON* SUNNY     81  68  65 SE7       30.06S

$$

MSZ070-080>082-291700-
SOUTHERN MISSISSIPPI

CITY           SKY/WX    TMP DP  RH WIND       PRES   REMARKS
MCCOMB         CLOUDY    72  65  78 N7        30.04F
GULFPORT       CLOUDY    79  69  71 W3        30.04S
BILOXI         CLOUDY    79  69  70 SW5       30.05S
PASCAGOULA     PTSUNNY   79  73  82 S6        30.05F

$$

COASTAL OBSERVATIONS
LAKE AND NEARSHORE STATIONS

STATION/POSITION TIME  TEMP    WIND        PRES    WAVE
                       AIR SEA DIR/SP/G            HT/PER
                 (UTC) (F)     (DEG/KT/KT) (MB)    (FT/S)
PASCAGOULA       1548   78     250/  4/  6 1017.4
WAVELAND YACHT   1548   77 80  240/  7/  9 1017.5
GRAND ISLE       1548   77 80  130/  2/  4 1017.9
SOUTHWEST PASS   1548           20/  4/  7   N/A
NEW CANAL        1548   76 79  160/  4/  7 1016.6
SHELL BEACH      1548   76 81  160/  7/ 11 1017.1

OFFSHORE STATIONS

STATION/POSITION TIME  TEMP    WIND        PRES    WAVE
                       AIR SEA DIR/SP/G            HT/PER
                 (UTC) (F)     (DEG/KT/KT) (MB)    (FT/S)
64 S DAUPHIN ISL 1550   79 80  230/  6/  8 1018.5    3/ 6

$$





USA.gov is the U.S. government's official web portal to all federal, state and local government web resources and services.